Year,Month,Day,Hour,Minute,Value (Times are PST for temperature in C)
2014,06,23,07,43,13.80
2014,06,23,07,44,13.80
2014,06,23,07,45,13.70
2014,06,23,07,46,13.70
2014,06,23,07,47,13.70
2014,06,23,07,48,13.70
2014,06,23,07,49,13.70
2014,06,23,07,50,13.70
2014,06,23,07,51,13.70
2014,06,23,07,52,13.70
2014,06,23,07,53,13.70
2014,06,23,07,54,13.70
2014,06,23,07,55,13.80
2014,06,23,07,56,13.80
2014,06,23,07,57,13.80
2014,06,23,07,58,13.80
2014,06,23,07,59,13.80
2014,06,23,08,00,13.90
2014,06,23,08,01,13.90
2014,06,23,08,02,13.90
2014,06,23,08,03,13.90
2014,06,23,08,04,14.00
2014,06,23,08,05,14.00
2014,06,23,08,06,14.00
2014,06,23,08,07,14.00
2014,06,23,08,08,14.10
2014,06,23,08,09,14.10
2014,06,23,08,10,14.10
2014,06,23,08,11,14.20
2014,06,23,08,12,14.20
2014,06,23,08,13,14.20
2014,06,23,08,14,14.20
2014,06,23,08,15,14.20
2014,06,23,08,16,14.20
2014,06,23,08,17,14.20
2014,06,23,08,18,14.20
2014,06,23,08,19,14.30
2014,06,23,08,20,14.30
2014,06,23,08,21,14.30
2014,06,23,08,22,14.30
2014,06,23,08,23,14.40
2014,06,23,08,24,14.40
2014,06,23,08,25,14.50
2014,06,23,08,26,14.60
2014,06,23,08,27,14.60
2014,06,23,08,28,14.60
2014,06,23,08,29,14.70
2014,06,23,08,30,14.70
2014,06,23,08,31,14.80
2014,06,23,08,32,14.80
2014,06,23,08,33,14.90
2014,06,23,08,34,15.00
2014,06,23,08,35,15.00
2014,06,23,08,36,15.10
2014,06,23,08,37,15.20
2014,06,23,08,38,15.20
2014,06,23,08,39,15.20
2014,06,23,08,40,15.20
2014,06,23,08,41,15.20
2014,06,23,08,42,15.10
2014,06,23,08,43,15.10
2014,06,23,08,44,15.20
2014,06,23,08,45,15.20
2014,06,23,08,46,15.20
2014,06,23,08,47,15.30
2014,06,23,08,48,15.30
2014,06,23,08,49,15.40
2014,06,23,08,50,15.50
2014,06,23,08,51,15.50
2014,06,23,08,52,15.60
2014,06,23,08,53,15.60
2014,06,23,08,54,15.60
2014,06,23,08,55,15.60
2014,06,23,08,56,15.60
2014,06,23,08,57,15.50
2014,06,23,08,58,15.50
2014,06,23,08,59,15.50
2014,06,23,09,00,15.50
2014,06,23,09,01,15.40
2014,06,23,09,02,15.40
2014,06,23,09,03,15.40
2014,06,23,09,04,15.40
2014,06,23,09,05,15.30
2014,06,23,09,06,15.30
2014,06,23,09,07,15.40
2014,06,23,09,08,15.40
2014,06,23,09,09,15.40
2014,06,23,09,10,15.50
2014,06,23,09,11,15.50
2014,06,23,09,12,15.60
2014,06,23,09,13,15.60
2014,06,23,09,14,15.70
2014,06,23,09,15,15.70
2014,06,23,09,16,15.80
2014,06,23,09,17,15.80
2014,06,23,09,18,15.80
2014,06,23,09,19,15.80
2014,06,23,09,20,15.90
2014,06,23,09,21,15.90
2014,06,23,09,22,16.10
2014,06,23,09,23,16.10
2014,06,23,09,24,16.10
2014,06,23,09,25,16.10
2014,06,23,09,26,16.10
2014,06,23,09,27,16.20
2014,06,23,09,28,16.20
2014,06,23,09,29,16.30
2014,06,23,09,30,16.30
2014,06,23,09,31,16.30
2014,06,23,09,32,16.40
2014,06,23,09,33,16.40
2014,06,23,09,34,16.40
2014,06,23,09,35,16.40
2014,06,23,09,36,16.40
2014,06,23,09,37,16.40
2014,06,23,09,38,16.40
2014,06,23,09,39,16.40
2014,06,23,09,40,16.40
2014,06,23,09,41,16.40
2014,06,23,09,42,16.40
2014,06,23,09,43,16.40
2014,06,23,09,44,16.40
2014,06,23,09,45,16.60
2014,06,23,09,46,16.60
2014,06,23,09,47,16.60
2014,06,23,09,48,16.70
2014,06,23,09,49,16.70
2014,06,23,09,50,16.80
2014,06,23,09,51,16.90
2014,06,23,09,52,17.00
2014,06,23,09,53,17.10
2014,06,23,09,54,17.30
2014,06,23,09,55,17.30
2014,06,23,09,56,17.40
2014,06,23,09,57,17.50
2014,06,23,09,58,17.60
2014,06,23,09,59,17.70
2014,06,23,10,00,17.80
2014,06,23,10,01,17.90
2014,06,23,10,02,17.90
2014,06,23,10,03,18.10
2014,06,23,10,04,18.20
2014,06,23,10,05,18.20
2014,06,23,10,06,18.30
2014,06,23,10,07,18.40
2014,06,23,10,08,18.40
2014,06,23,10,09,18.50
2014,06,23,10,11,18.70
2014,06,23,10,12,18.70
2014,06,23,10,13,18.80
2014,06,23,10,14,18.80
2014,06,23,10,15,18.80
2014,06,23,10,16,18.80
2014,06,23,10,17,18.80
2014,06,23,10,18,18.80
2014,06,23,10,19,18.80
2014,06,23,10,20,18.90
2014,06,23,10,21,18.90
2014,06,23,10,22,18.90
2014,06,23,10,23,19.10
2014,06,23,10,24,19.10
2014,06,23,10,25,19.20
2014,06,23,10,26,19.20
2014,06,23,10,27,19.30
2014,06,23,10,28,19.40
2014,06,23,10,29,19.50
2014,06,23,10,30,19.50
2014,06,23,10,31,19.60
2014,06,23,10,32,19.60
2014,06,23,10,33,19.70
2014,06,23,10,34,19.80
2014,06,23,10,35,19.90
2014,06,23,10,36,19.90
2014,06,23,10,37,19.90
2014,06,23,10,38,20.10
2014,06,23,10,40,20.20
2014,06,23,10,41,20.20
2014,06,23,10,42,20.20
2014,06,23,10,43,20.20
2014,06,23,10,44,20.20
2014,06,23,10,45,20.20
2014,06,23,10,46,20.20
2014,06,23,10,47,20.30
2014,06,23,10,48,20.30
2014,06,23,10,49,20.40
2014,06,23,10,50,20.40
2014,06,23,10,51,20.40
2014,06,23,10,52,20.40
2014,06,23,10,53,20.50
2014,06,23,10,54,20.50
2014,06,23,10,55,20.60
2014,06,23,10,56,20.60
2014,06,23,10,57,20.60
2014,06,23,10,58,20.60
2014,06,23,10,59,20.70
2014,06,23,11,00,20.80
2014,06,23,11,01,20.90
2014,06,23,11,02,21.00
2014,06,23,11,03,21.10
2014,06,23,11,04,21.20
2014,06,23,11,05,21.30
2014,06,23,11,06,21.30
2014,06,23,11,07,21.30
2014,06,23,11,08,21.30
2014,06,23,11,09,21.40
2014,06,23,11,10,21.60
2014,06,23,11,11,21.60
2014,06,23,11,12,21.70
2014,06,23,11,13,21.80
2014,06,23,11,14,21.90
2014,06,23,11,15,21.90
2014,06,23,11,16,21.90
2014,06,23,11,17,22.00
2014,06,23,11,18,22.00
2014,06,23,11,19,22.10
2014,06,23,11,20,22.10
2014,06,23,11,21,22.20
2014,06,23,11,22,22.20
2014,06,23,11,23,22.30
2014,06,23,11,24,22.30
2014,06,23,11,25,22.20
2014,06,23,11,26,22.10
2014,06,23,11,27,22.10
2014,06,23,11,28,22.00
2014,06,23,11,29,22.00
2014,06,23,11,30,22.00
2014,06,23,11,31,22.10
2014,06,23,11,32,22.10
2014,06,23,11,33,22.10
2014,06,23,11,34,22.10
2014,06,23,11,35,22.10
2014,06,23,11,36,22.10
2014,06,23,11,37,22.10
2014,06,23,11,38,22.10
2014,06,23,11,39,22.20
2014,06,23,11,40,22.30
2014,06,23,11,41,22.30
2014,06,23,11,42,22.40
2014,06,23,11,43,22.50
2014,06,23,11,44,22.50
2014,06,23,11,45,22.70
2014,06,23,11,46,22.70
2014,06,23,11,47,22.80
2014,06,23,11,48,22.80
2014,06,23,11,49,22.80
2014,06,23,11,50,22.80
2014,06,23,11,51,22.90
2014,06,23,11,52,22.90
2014,06,23,11,53,22.90
2014,06,23,11,54,22.90
2014,06,23,11,55,22.90
2014,06,23,11,56,22.90
2014,06,23,11,57,22.90
2014,06,23,11,58,22.90
2014,06,23,11,59,22.90
2014,06,23,12,00,22.90
2014,06,23,12,01,22.90
2014,06,23,12,02,22.90
2014,06,23,12,03,22.90
2014,06,23,12,04,22.90
2014,06,23,12,05,22.90
2014,06,23,12,06,22.80
2014,06,23,12,07,22.70
2014,06,23,12,08,22.70
2014,06,23,12,09,22.70
2014,06,23,12,10,22.70
2014,06,23,12,11,22.60
2014,06,23,12,12,22.60
2014,06,23,12,13,22.70
2014,06,23,12,14,22.70
2014,06,23,12,16,22.70
2014,06,23,12,17,22.70
2014,06,23,12,18,22.70
2014,06,23,12,19,22.70
2014,06,23,12,20,22.70
2014,06,23,12,21,22.70
2014,06,23,12,22,22.80
2014,06,23,12,23,22.80
2014,06,23,12,24,22.90
2014,06,23,12,26,22.90
2014,06,23,12,27,22.90
2014,06,23,12,28,22.90
2014,06,23,12,29,22.90
2014,06,23,12,30,22.90
2014,06,23,12,31,22.90
2014,06,23,12,32,22.90
2014,06,23,12,33,22.90
2014,06,23,12,34,23.10
2014,06,23,12,35,23.10
2014,06,23,12,36,23.10
2014,06,23,12,37,23.10
2014,06,23,12,38,22.90
2014,06,23,12,39,22.90
2014,06,23,12,40,22.90
2014,06,23,12,41,22.90
2014,06,23,12,42,22.90
2014,06,23,12,43,22.90
2014,06,23,12,44,22.90
2014,06,23,12,45,22.90
2014,06,23,12,46,23.10
2014,06,23,12,47,23.10
2014,06,23,12,48,23.20
2014,06,23,12,49,23.20
2014,06,23,12,50,23.30
2014,06,23,12,51,23.30
2014,06,23,12,52,23.30
2014,06,23,12,53,23.30
2014,06,23,12,54,23.30
2014,06,23,12,55,23.30
2014,06,23,12,56,23.30
2014,06,23,12,57,23.30
2014,06,23,12,58,23.30
2014,06,23,12,59,23.30
2014,06,23,13,00,23.30
2014,06,23,13,01,23.30
2014,06,23,13,02,23.30
2014,06,23,13,03,23.30
2014,06,23,13,04,23.30
2014,06,23,13,05,23.20
2014,06,23,13,06,23.30
2014,06,23,13,07,23.30
2014,06,23,13,08,23.30
2014,06,23,13,09,23.30
2014,06,23,13,10,23.30
2014,06,23,13,11,23.40
2014,06,23,13,12,23.60
2014,06,23,13,13,23.60
2014,06,23,13,14,23.60
2014,06,23,13,15,23.60
2014,06,23,13,16,23.70
2014,06,23,13,17,23.60
2014,06,23,13,18,23.70
2014,06,23,13,19,23.70
2014,06,23,13,20,23.70
2014,06,23,13,21,23.60
2014,06,23,13,22,23.40
2014,06,23,13,23,23.30
2014,06,23,13,24,23.30
2014,06,23,13,25,23.20
2014,06,23,13,26,23.20
2014,06,23,13,27,23.10
2014,06,23,13,28,22.90
2014,06,23,13,29,22.90
2014,06,23,13,31,23.10
2014,06,23,13,32,22.90
2014,06,23,13,33,22.90
2014,06,23,13,34,22.90
2014,06,23,13,35,22.90
2014,06,23,13,36,22.80
2014,06,23,13,37,22.80
2014,06,23,13,38,22.80
2014,06,23,13,39,22.80
2014,06,23,13,40,22.80
2014,06,23,13,41,22.80
2014,06,23,13,42,22.70
2014,06,23,13,43,22.60
2014,06,23,13,44,22.50
2014,06,23,13,45,22.50
2014,06,23,13,46,22.50
2014,06,23,13,48,22.50
2014,06,23,13,49,22.60
2014,06,23,13,50,22.50
2014,06,23,13,51,22.50
2014,06,23,13,52,22.50
2014,06,23,13,53,22.50
2014,06,23,13,54,22.50
2014,06,23,13,55,22.50
2014,06,23,13,56,22.50
2014,06,23,13,57,22.50
2014,06,23,13,58,22.60
2014,06,23,13,59,22.60
2014,06,23,14,00,22.60
2014,06,23,14,01,22.50
2014,06,23,14,02,22.50
2014,06,23,14,03,22.50
2014,06,23,14,04,22.50
2014,06,23,14,05,22.50
2014,06,23,14,06,22.50
2014,06,23,14,07,22.50
2014,06,23,14,08,22.50
2014,06,23,14,09,22.50
2014,06,23,14,10,22.40
2014,06,23,14,11,22.40
2014,06,23,14,12,22.30
2014,06,23,14,13,22.20
2014,06,23,14,14,22.20
2014,06,23,14,15,22.20
2014,06,23,14,16,22.10
2014,06,23,14,17,22.10
2014,06,23,14,18,22.10
2014,06,23,14,19,22.00
2014,06,23,14,20,21.90
2014,06,23,14,21,21.90
2014,06,23,14,22,21.80
2014,06,23,14,23,21.70
2014,06,23,14,24,21.60
2014,06,23,14,25,21.60
2014,06,23,14,26,21.60
2014,06,23,14,27,21.60
2014,06,23,14,28,21.40
2014,06,23,14,29,21.40
2014,06,23,14,30,21.40
2014,06,23,14,31,21.30
2014,06,23,14,32,21.30
2014,06,23,14,33,21.30
2014,06,23,14,34,21.30
2014,06,23,14,35,21.30
2014,06,23,14,36,21.30
2014,06,23,14,37,21.30
2014,06,23,14,38,21.30
2014,06,23,14,39,21.30
2014,06,23,14,40,21.30
2014,06,23,14,41,21.30
2014,06,23,14,42,21.30
2014,06,23,14,43,21.30
2014,06,23,14,44,21.30
2014,06,23,14,45,21.30
2014,06,23,14,46,21.30
2014,06,23,14,47,21.30
2014,06,23,14,48,21.30
2014,06,23,14,49,21.40
2014,06,23,14,50,21.40
2014,06,23,14,51,21.40
2014,06,23,14,52,21.30
2014,06,23,14,53,21.30
2014,06,23,14,54,21.30
2014,06,23,14,55,21.20
2014,06,23,14,56,21.10
2014,06,23,14,57,21.00
2014,06,23,14,58,20.90
2014,06,23,14,59,20.80
2014,06,23,15,00,20.60
2014,06,23,15,01,20.50
2014,06,23,15,02,20.50
2014,06,23,15,03,20.50
2014,06,23,15,04,20.40
2014,06,23,15,05,20.40
2014,06,23,15,06,20.30
2014,06,23,15,07,20.30
2014,06,23,15,08,20.20
2014,06,23,15,09,20.20
2014,06,23,15,10,20.20
2014,06,23,15,11,20.20
2014,06,23,15,12,20.20
2014,06,23,15,13,20.30
2014,06,23,15,14,20.20
2014,06,23,15,15,20.30
2014,06,23,15,16,20.30
2014,06,23,15,17,20.20
2014,06,23,15,18,20.20
2014,06,23,15,19,20.20
2014,06,23,15,20,20.10
2014,06,23,15,21,20.10
2014,06,23,15,22,19.90
2014,06,23,15,23,19.90
2014,06,23,15,24,19.90
2014,06,23,15,25,19.80
2014,06,23,15,26,19.80
2014,06,23,15,27,19.70
2014,06,23,15,28,19.70
2014,06,23,15,29,19.80
2014,06,23,15,30,19.80
2014,06,23,15,31,19.80
2014,06,23,15,32,19.80
2014,06,23,15,33,19.80
2014,06,23,15,34,19.80
2014,06,23,15,35,19.80
2014,06,23,15,36,19.70
2014,06,23,15,37,19.70
2014,06,23,15,38,19.70
2014,06,23,15,39,19.70
2014,06,23,15,40,19.60
2014,06,23,15,41,19.60
2014,06,23,15,42,19.60
2014,06,23,15,43,19.50
2014,06,23,15,44,19.40
2014,06,23,15,45,19.40
2014,06,23,15,46,19.30
2014,06,23,15,47,19.30
2014,06,23,15,48,19.20
2014,06,23,15,49,19.10
2014,06,23,15,50,19.10
2014,06,23,15,51,19.10
2014,06,23,15,52,19.10
2014,06,23,15,53,18.90
2014,06,23,15,54,18.90
2014,06,23,15,55,18.90
2014,06,23,15,56,18.90
2014,06,23,15,57,18.90
2014,06,23,15,58,18.90
2014,06,23,15,59,18.90
2014,06,23,16,00,18.90
2014,06,23,16,01,18.80
2014,06,23,16,03,18.80
2014,06,23,16,04,18.80
2014,06,23,16,05,18.80
2014,06,23,16,06,18.80
2014,06,23,16,07,18.80
2014,06,23,16,08,18.80
2014,06,23,16,09,18.80
2014,06,23,16,10,18.80
2014,06,23,16,11,18.70
2014,06,23,16,12,18.70
2014,06,23,16,13,18.60
2014,06,23,16,14,18.60
2014,06,23,16,15,18.50
2014,06,23,16,16,18.50
2014,06,23,16,17,18.40
2014,06,23,16,18,18.30
2014,06,23,16,19,18.20
2014,06,23,16,20,18.20
2014,06,23,16,21,18.20
2014,06,23,16,22,18.10
2014,06,23,16,23,17.90
2014,06,23,16,24,17.90
2014,06,23,16,25,17.80
2014,06,23,16,26,17.70
2014,06,23,16,27,17.60
2014,06,23,16,28,17.50
2014,06,23,16,29,17.40
2014,06,23,16,30,17.30
2014,06,23,16,31,17.30
2014,06,23,16,32,17.30
2014,06,23,16,33,17.30
2014,06,23,16,34,17.30
2014,06,23,16,35,17.30
2014,06,23,16,36,17.30
2014,06,23,16,37,17.30
2014,06,23,16,38,17.20
2014,06,23,16,39,17.20
2014,06,23,16,40,17.20
2014,06,23,16,41,17.10
2014,06,23,16,42,17.10
2014,06,23,16,43,17.10
2014,06,23,16,44,17.10
2014,06,23,16,45,17.00
2014,06,23,16,46,17.00
2014,06,23,16,47,16.90
2014,06,23,16,48,16.90
2014,06,23,16,49,16.90
2014,06,23,16,50,16.90
2014,06,23,16,51,16.90
2014,06,23,16,52,16.90
2014,06,23,16,53,16.90
2014,06,23,16,54,16.90
2014,06,23,16,55,16.80
2014,06,23,16,56,16.80
2014,06,23,16,57,16.80
2014,06,23,16,58,16.80
2014,06,23,16,59,16.70
2014,06,23,17,00,16.70
2014,06,23,17,01,16.70
2014,06,23,17,02,16.70
2014,06,23,17,03,16.70
2014,06,23,17,04,16.70
2014,06,23,17,05,16.70
2014,06,23,17,06,16.70
2014,06,23,17,07,16.70
2014,06,23,17,08,16.70
2014,06,23,17,09,16.70
2014,06,23,17,10,16.60
2014,06,23,17,11,16.60
2014,06,23,17,12,16.40
2014,06,23,17,13,16.40
2014,06,23,17,14,16.40
2014,06,23,17,15,16.40
2014,06,23,17,16,16.40
2014,06,23,17,17,16.40
2014,06,23,17,18,16.30
2014,06,23,17,19,16.30
2014,06,23,17,20,16.30
2014,06,23,17,21,16.30
2014,06,23,17,22,16.30
2014,06,23,17,23,16.30
2014,06,23,17,24,16.30
2014,06,23,17,25,16.30
2014,06,23,17,26,16.30
2014,06,23,17,27,16.30
2014,06,23,17,28,16.30
2014,06,23,17,29,16.30
2014,06,23,17,30,16.30
2014,06,23,17,31,16.30
